Baton Rouge, LA

2:43 PM CDT on October 22, 2017 (GMT -0500)
Baton Rouge Metro-Ryan

Weather History for KBTR - September, 2012

Change the Weather History Date:

Wednesday, September 12, 2012

  Actual Average Record
Temperature  
Mean Temperature 80 °F 80 °F  
Max Temperature 90 °F 90 °F 99 °F (1909)
Min Temperature 69 °F 70 °F 49 °F (1940)
Degree Days  
Heating Degree Days 0 0  
Month to date heating degree days 0 0  
Since 1 July heating degree days 0 0  
Cooling Degree Days 15 15  
Month to date cooling degree days 194 191  
Year to date cooling degree days 2581 2352  
Growing Degree Days 28 (Base 50)    
Moisture  
Dew Point 69 °F    
Average Humidity 73    
Maximum Humidity 97    
Minimum Humidity 48    
Precipitation  
Precipitation T in 0.16 in 6.31 in (1973)
Month to date precipitation 0.13 1.95  
Year to date precipitation 44.40 43.66  
Snow  
Snow 0.00 in - - ()
Month to date snowfall 0.0  
Since 1 July snowfall 0.0  
Since 1 September snowfall 0.0  
Snow Depth 0.00 in    
Sea Level Pressure  
Sea Level Pressure 30.09 in    
Wind  
Wind Speed 5 mph (ESE)    
Max Wind Speed 16 mph    
Max Gust Speed 22 mph    
Visibility 10 miles    
Events      
T = Trace of Precipitation, MM = Missing Value Source: NWS Daily Summary

Daily Weather History Graph

Daily Weather History Graph

Search for Another Location

Airport or City:

Trip Planner

Search our weather history database for the weather conditions in past years. The results will help you decide how hot, cold, wet, or windy it might be!

Date:

Astronomy

Sep. 12, 2012 Rise Set
Actual Time 6:47 AM CDT 7:13 PM CDT
Civil Twilight 6:23 AM CDT 7:37 PM CDT
Nautical Twilight 5:55 AM CDT 8:05 PM CDT
Astronomical Twilight 5:26 AM CDT 8:34 PM CDT
Moon 3:16 AM CDT (9/12) 4:51 PM CDT (9/12)
Length of Visible Light 13h 13m
Length of Day
12h 25m
Waning Crescent, 13% of the Moon is Illuminated
Sep 12
Waning Crescent
Sep 15
New
Sep 22
First Quarter
Sep 29
Full
Oct 8
Last Quarter

Hourly Weather History & Observations

Time (CDT) Temp. Heat Index Dew Point Humidity Pressure Visibility Wind Dir Wind Speed Gust Speed Precip Events Conditions
12:53 AM 71.1 °F - 69.1 °F 93% 30.09 in 10.0 mi East 5.8 mph - N/A   Clear
1:53 AM 71.1 °F - 68.0 °F 90% 30.09 in 10.0 mi ENE 3.5 mph - N/A   Clear
2:53 AM 70.0 °F - 68.0 °F 93% 30.08 in 10.0 mi Calm Calm - N/A   Partly Cloudy
3:53 AM 70.0 °F - 68.0 °F 93% 30.07 in 10.0 mi ENE 5.8 mph - N/A   Overcast
4:53 AM 70.0 °F - 66.9 °F 90% 30.07 in 10.0 mi ENE 5.8 mph - N/A   Clear
5:53 AM 69.1 °F - 66.9 °F 93% 30.09 in 10.0 mi East 4.6 mph - N/A   Clear
6:10 AM 69.8 °F - 66.2 °F 88% 30.10 in 10.0 mi East 3.5 mph - N/A   Mostly Cloudy
6:35 AM 69.8 °F - 66.2 °F 88% 30.10 in 10.0 mi Calm Calm - N/A   Scattered Clouds
6:53 AM 69.1 °F - 66.0 °F 90% 30.10 in 10.0 mi East 3.5 mph - N/A   Clear
7:53 AM 71.1 °F - 66.9 °F 87% 30.12 in 10.0 mi East 5.8 mph - N/A   Overcast
8:53 AM 75.9 °F - 68.0 °F 76% 30.12 in 10.0 mi ESE 5.8 mph - N/A   Scattered Clouds
9:53 AM 80.1 °F 83.8 °F 72.0 °F 76% 30.13 in 10.0 mi ESE 8.1 mph - N/A   Partly Cloudy
10:53 AM 82.9 °F 87.0 °F 70.0 °F 65% 30.14 in 10.0 mi East 8.1 mph - N/A   Partly Cloudy
11:53 AM 84.9 °F 88.2 °F 68.0 °F 57% 30.12 in 10.0 mi Calm Calm - N/A   Partly Cloudy
12:53 PM 88.0 °F 92.9 °F 70.0 °F 55% 30.10 in 10.0 mi Variable 3.5 mph - N/A   Clear
1:53 PM 87.1 °F 91.3 °F 69.1 °F 55% 30.08 in 10.0 mi Variable 3.5 mph - N/A   Scattered Clouds
2:53 PM 86.0 °F 89.4 °F 68.0 °F 55% 30.06 in 10.0 mi East 10.4 mph - N/A   Mostly Cloudy
3:53 PM 86.0 °F 87.3 °F 64.0 °F 48% 30.05 in 10.0 mi ESE 9.2 mph - 0.00 in   Scattered Clouds
4:53 PM 82.0 °F 85.5 °F 69.1 °F 65% 30.05 in 10.0 mi South 9.2 mph - N/A   Clear
5:53 PM 81.0 °F 84.1 °F 69.1 °F 67% 30.08 in 10.0 mi SSW 4.6 mph - N/A   Mostly Cloudy
6:39 PM 78.8 °F - 69.8 °F 74% 30.08 in 10.0 mi SSE 13.8 mph 21.9 mph N/A   Mostly Cloudy
6:46 PM 78.8 °F - 71.6 °F 78% 30.08 in 10.0 mi SSE 9.2 mph - N/A   Overcast
6:53 PM 77.0 °F - 70.0 °F 79% 30.08 in 10.0 mi SSE 8.1 mph - N/A   Overcast
7:53 PM 73.9 °F - 71.1 °F 91% 30.06 in 10.0 mi ESE 4.6 mph - 0.00 in   Clear
8:53 PM 73.0 °F - 70.0 °F 90% 30.07 in 10.0 mi NNE 4.6 mph - N/A   Partly Cloudy
9:18 PM 73.4 °F - 71.6 °F 94% 30.09 in 10.0 mi ENE 3.5 mph - N/A   Mostly Cloudy
9:53 PM 73.9 °F - 71.1 °F 91% 30.11 in 10.0 mi Calm Calm - N/A   Overcast
10:53 PM 73.9 °F - 72.0 °F 93% 30.12 in 10.0 mi Calm Calm - N/A   Overcast
11:14 PM 75.2 °F - 71.6 °F 89% 30.12 in 10.0 mi Calm Calm - N/A   Mostly Cloudy
11:53 PM 73.9 °F - 72.0 °F 93% 30.12 in 10.0 mi ESE 3.5 mph - N/A   Partly Cloudy